This is the latest recevied weather packets stored in our database for station/object KF4CQ. If no packets are shown the sender has not sent any weather packets the latest 10 day(s).
| Time | Temp. | Humidity | Pressure | Rain* | Wind** | Luminosity | Snow |
|---|---|---|---|---|---|---|---|
| 1777585114 | 28.89° C | 64% | 1010.6 hPa | 0 mm | - | 93 W/m² | - |
| 1777584811 | 28.89° C | 63% | 1010.8 hPa | 0 mm | - | 142 W/m² | - |
| 1777584509 | 28.89° C | 63% | 1010.6 hPa | 0 mm | - | 112 W/m² | - |
| 1777584205 | 28.89° C | 63% | 1010.7 hPa | 0 mm | - | 79 W/m² | - |
| 1777583904 | 28.89° C | 63% | 1010.7 hPa | 0 mm | - | 100 W/m² | - |
| 1777583600 | 29.44° C | 62% | 1010.8 hPa | 0 mm | - | 111 W/m² | - |
| 1777583299 | 29.44° C | 62% | 1010.7 hPa | 0 mm | - | 122 W/m² | - |
| 1777582994 | 29.44° C | 62% | 1010.6 hPa | 0 mm | - | 136 W/m² | - |
| 1777582692 | 29.44° C | 60% | 1010.4 hPa | 0 mm | - | 123 W/m² | - |
| 1777582386 | 29.44° C | 60% | 1010.7 hPa | 0 mm | - | 131 W/m² | - |
| 1777582085 | 30° C | 59% | 1010.5 hPa | 0 mm | - | 112 W/m² | - |
| 1777581780 | 30.56° C | 58% | 1010.7 hPa | 0 mm | - | 131 W/m² | - |
| 1777581478 | 30.56° C | 58% | 1010.8 hPa | 0 mm | - | 261 W/m² | - |
| 1777581173 | 31.11° C | 56% | 1010.8 hPa | 0 mm | - | 326 W/m² | - |
| 1777580868 | 31.11° C | 56% | 1010.7 hPa | 0 mm | - | 336 W/m² | - |
| 1777580563 | 31.11° C | 56% | 1010.7 hPa | 0 mm | - | 288 W/m² | - |
| 1777580259 | 30.56° C | 57% | 1010.8 hPa | 0 mm | - | 346 W/m² | - |
| 1777579956 | 30.56° C | 57% | 1010.6 hPa | 0 mm | - | 392 W/m² | - |
| 1777579651 | 31.11° C | 57% | 1010.8 hPa | 0 mm | - | 91 W/m² | - |
| 1777579350 | 31.11° C | 56% | 1010.7 hPa | 0 mm | - | 94 W/m² | - |
| 1777579046 | 30.56° C | 57% | 1010.8 hPa | 0 mm | - | 284 W/m² | - |
| 1777578740 | 31.11° C | 56% | 1011 hPa | 0 mm | - | 126 W/m² | - |
| 1777578435 | 31.11° C | 56% | 1010.8 hPa | 0 mm | - | 438 W/m² | - |
| 1777578131 | 31.67° C | 55% | 1010.8 hPa | 0 mm | - | 531 W/m² | - |
| 1777577827 | 31.11° C | 56% | 1010.9 hPa | 0 mm | - | 578 W/m² | - |
* Rain latest hour (hover to see other rain measurements)
** Current wind speed in m/s (hover to see current wind gust speed)